• In Czech Republic
  • List of Countries
  • For 7 days
  • Water Temperature
  • Satellite Maps
  • Weather Map
  • Weather Widgets
  • user-avatar
    Login

    Hourly Weather Rangpur

    Today, 24 August, Thursday

    Time Temperature Precipitation Wind Pressure Humidity
    00:00 +32°C° 0 mm 1 mps 750 mmHg 67%
    01:00 +32°C° 0 mm 1 mps 749 mmHg 68%
    02:00 +32°C° 0 mm 1 mps 749 mmHg 69%
    03:00 +31°C° 0 mm 1 mps 749 mmHg 70%
    04:00 +31°C° 0 mm 1 mps 749 mmHg 71%
    05:00 +31°C° 0 mm 1 mps 749 mmHg 73%
    06:00 +31°C° 0 mm 1 mps 749 mmHg 76%
    07:00 +32°C° 0 mm 1 mps 750 mmHg 71%
    08:00 +33°C° 0 mm 1 mps 750 mmHg 67%
    09:00 +35°C° 0 mm 2 mps 750 mmHg 62%
    10:00 +36°C° 0 mm 2 mps 750 mmHg 58%
    11:00 +37°C° 0 mm 2 mps 749 mmHg 54%
    12:00 +38°C° 0 mm 2 mps 749 mmHg 51%
    13:00 +38°C° 0 mm 2 mps 748 mmHg 50%
    14:00 +38°C° 0 mm 2 mps 748 mmHg 49%
    15:00 +38°C° 0 mm 2 mps 747 mmHg 48%
    16:00 +38°C° 0 mm 2 mps 747 mmHg 51%
    17:00 +37°C° 0 mm 2 mps 747 mmHg 54%
    18:00 +37°C° 0 mm 2 mps 746 mmHg 57%
    19:00 +36°C° 0 mm 2 mps 747 mmHg 59%
    20:00 +35°C° 0 mm 2 mps 747 mmHg 61%
    21:00 +34°C° 0 mm 3 mps 748 mmHg 63%
    22:00 +34°C° 0 mm 3 mps 748 mmHg 65%
    23:00 +34°C° 0 mm 3 mps 748 mmHg 67%

    Tomorrow, 25 August, Friday

    Time Temperature Precipitation Wind Pressure Humidity
    00:00 +33°C° 0 mm 3 mps 748 mmHg 69%
    01:00 +33°C° 0.3 mm 3 mps 748 mmHg 72%
    02:00 +31°C° 0.3 mm 2 mps 748 mmHg 75%
    03:00 +31°C° 0.3 mm 2 mps 747 mmHg 78%
    04:00 +31°C° 1.6 mm 2 mps 747 mmHg 79%
    05:00 +30°C° 1.6 mm 2 mps 747 mmHg 81%
    06:00 +30°C° 1.6 mm 2 mps 747 mmHg 82%
    07:00 +31°C° 0.1 mm 2 mps 748 mmHg 77%
    08:00 +32°C° 0.1 mm 2 mps 748 mmHg 71%
    09:00 +35°C° 0.1 mm 2 mps 748 mmHg 66%
    10:00 +36°C° 0.1 mm 3 mps 748 mmHg 62%
    11:00 +36°C° 0.1 mm 3 mps 748 mmHg 59%
    12:00 +37°C° 0.1 mm 4 mps 747 mmHg 55%
    13:00 +38°C° 0 mm 4 mps 747 mmHg 54%
    14:00 +38°C° 0 mm 4 mps 746 mmHg 54%
    15:00 +38°C° 0 mm 4 mps 746 mmHg 53%
    16:00 +37°C° 0.3 mm 3 mps 746 mmHg 56%
    17:00 +37°C° 0.3 mm 3 mps 746 mmHg 60%
    18:00 +36°C° 0.3 mm 2 mps 746 mmHg 64%
    19:00 +35°C° 1.2 mm 3 mps 747 mmHg 67%
    20:00 +34°C° 1.2 mm 3 mps 747 mmHg 71%
    21:00 +33°C° 1.2 mm 3 mps 748 mmHg 74%
    22:00 +33°C° 1.4 mm 3 mps 748 mmHg 76%
    23:00 +31°C° 1.4 mm 3 mps 748 mmHg 77%

    Day after tomorrow, 26 August, Saturday

    Time Temperature Precipitation Wind Pressure Humidity
    00:00 +31°C° 1.4 mm 3 mps 748 mmHg 79%
    01:00 +31°C° 1.8 mm 3 mps 747 mmHg 80%
    02:00 +30°C° 1.8 mm 3 mps 747 mmHg 82%
    03:00 +30°C° 1.8 mm 2 mps 747 mmHg 83%
    04:00 +30°C° 0.3 mm 2 mps 747 mmHg 83%
    05:00 +30°C° 0.3 mm 2 mps 747 mmHg 83%
    06:00 +30°C° 0.3 mm 2 mps 747 mmHg 83%
    07:00 +30°C° 0.1 mm 2 mps 747 mmHg 81%
    08:00 +31°C° 0.1 mm 3 mps 748 mmHg 78%
    09:00 +33°C° 0.1 mm 3 mps 748 mmHg 76%
    10:00 +34°C° 0.1 mm 3 mps 748 mmHg 71%
    11:00 +35°C° 0.1 mm 3 mps 748 mmHg 66%
    12:00 +36°C° 0.1 mm 3 mps 748 mmHg 61%
    13:00 +36°C° 0.7 mm 3 mps 747 mmHg 61%
    14:00 +36°C° 0.7 mm 3 mps 746 mmHg 61%
    15:00 +36°C° 0.7 mm 4 mps 746 mmHg 61%
    16:00 +36°C° 0.6 mm 3 mps 746 mmHg 64%
    17:00 +35°C° 0.6 mm 3 mps 746 mmHg 67%
    18:00 +34°C° 0.6 mm 2 mps 746 mmHg 71%
    19:00 +34°C° 0 mm 2 mps 747 mmHg 73%
    20:00 +32°C° 0 mm 2 mps 747 mmHg 75%
    21:00 +32°C° 0 mm 2 mps 748 mmHg 77%
    22:00 +31°C° 0.3 mm 2 mps 748 mmHg 78%
    23:00 +31°C° 0.3 mm 2 mps 748 mmHg 79%

    27 August, Sunday

    Time Temperature Precipitation Wind Pressure Humidity
    00:00 +31°C° 0.3 mm 3 mps 748 mmHg 81%
    01:00 +30°C° 0.9 mm 3 mps 748 mmHg 82%
    02:00 +30°C° 0.9 mm 3 mps 747 mmHg 82%
    03:00 +29°C° 0.9 mm 3 mps 747 mmHg 83%
    04:00 +29°C° 0.4 mm 3 mps 747 mmHg 85%
    05:00 +29°C° 0.4 mm 3 mps 748 mmHg 86%
    06:00 +29°C° 0.4 mm 3 mps 748 mmHg 87%
    07:00 +30°C° 0.4 mm 4 mps 748 mmHg 83%
    08:00 +32°C° 0.4 mm 4 mps 749 mmHg 79%
    09:00 +32°C° 0.4 mm 5 mps 750 mmHg 74%
    10:00 +33°C° 0.8 mm 5 mps 749 mmHg 73%
    11:00 +33°C° 0.8 mm 5 mps 749 mmHg 71%
    12:00 +33°C° 0.8 mm 5 mps 749 mmHg 70%
    13:00 +35°C° 0 mm 5 mps 748 mmHg 65%
    14:00 +36°C° 0 mm 4 mps 747 mmHg 60%
    15:00 +37°C° 0 mm 4 mps 746 mmHg 56%
    16:00 +36°C° 0 mm 3 mps 746 mmHg 59%
    17:00 +36°C° 0 mm 3 mps 746 mmHg 62%
    18:00 +35°C° 0 mm 2 mps 747 mmHg 65%
    19:00 +34°C° 0 mm 2 mps 747 mmHg 67%
    20:00 +34°C° 0 mm 3 mps 748 mmHg 69%
    21:00 +33°C° 0 mm 3 mps 749 mmHg 71%
    22:00 +31°C° 0.1 mm 3 mps 749 mmHg 74%
    23:00 +31°C° 0.1 mm 3 mps 749 mmHg 77%

    28 August, Monday

    Time Temperature Precipitation Wind Pressure Humidity
    00:00 +30°C° 0.1 mm 3 mps 749 mmHg 80%
    01:00 +30°C° 0.2 mm 3 mps 749 mmHg 82%
    02:00 +30°C° 0.2 mm 3 mps 749 mmHg 83%
    03:00 +29°C° 0.2 mm 2 mps 749 mmHg 85%
    04:00 +29°C° 0.2 mm 2 mps 749 mmHg 86%
    05:00 +29°C° 0.2 mm 2 mps 749 mmHg 86%
    06:00 +29°C° 0.2 mm 2 mps 749 mmHg 87%
    07:00 +30°C° 0 mm 2 mps 750 mmHg 82%
    08:00 +31°C° 0 mm 3 mps 750 mmHg 76%
    09:00 +33°C° 0 mm 3 mps 750 mmHg 71%
    10:00 +34°C° 0 mm 3 mps 750 mmHg 66%
    11:00 +36°C° 0 mm 3 mps 750 mmHg 61%
    12:00 +37°C° 0 mm 3 mps 749 mmHg 55%
    13:00 +37°C° 0 mm 3 mps 748 mmHg 54%
    14:00 +37°C° 0 mm 3 mps 748 mmHg 53%
    15:00 +38°C° 0 mm 2 mps 747 mmHg 51%
    16:00 +37°C° 0 mm 2 mps 747 mmHg 55%
    17:00 +36°C° 0 mm 2 mps 747 mmHg 58%
    18:00 +36°C° 0 mm 2 mps 747 mmHg 62%
    19:00 +35°C° 0 mm 2 mps 748 mmHg 64%
    20:00 +34°C° 0 mm 2 mps 748 mmHg 67%
    21:00 +34°C° 0 mm 2 mps 749 mmHg 69%
    22:00 +32°C° 0.8 mm 2 mps 749 mmHg 72%
    23:00 +32°C° 0.8 mm 2 mps 749 mmHg 75%

    29 August, Tuesday

    Time Temperature Precipitation Wind Pressure Humidity
    00:00 +31°C° 0.8 mm 2 mps 749 mmHg 79%
    01:00 +31°C° 1.3 mm 2 mps 749 mmHg 81%
    02:00 +30°C° 1.3 mm 2 mps 749 mmHg 83%
    03:00 +30°C° 1.3 mm 2 mps 749 mmHg 85%
    04:00 +30°C° 0.2 mm 2 mps 749 mmHg 86%
    05:00 +29°C° 0.2 mm 2 mps 749 mmHg 87%
    06:00 +29°C° 0.2 mm 2 mps 749 mmHg 89%
    07:00 +30°C° 0.1 mm 2 mps 750 mmHg 83%
    08:00 +33°C° 0.1 mm 3 mps 750 mmHg 77%
    09:00 +34°C° 0.1 mm 3 mps 751 mmHg 72%
    10:00 +35°C° 0 mm 3 mps 750 mmHg 67%
    11:00 +36°C° 0 mm 3 mps 750 mmHg 62%
    12:00 +37°C° 0 mm 3 mps 749 mmHg 58%
    13:00 +37°C° 0 mm 3 mps 749 mmHg 56%
    14:00 +37°C° 0 mm 2 mps 748 mmHg 54%
    15:00 +38°C° 0 mm 2 mps 747 mmHg 52%
    16:00 +37°C° 0 mm 2 mps 747 mmHg 55%
    17:00 +37°C° 0 mm 2 mps 747 mmHg 58%
    18:00 +35°C° 0 mm 1 mps 747 mmHg 61%
    19:00 +34°C° 0 mm 1 mps 748 mmHg 63%
    20:00 +34°C° 0 mm 1 mps 748 mmHg 64%
    21:00 +34°C° 0 mm 2 mps 749 mmHg 66%
    22:00 +34°C° 0 mm 2 mps 749 mmHg 68%
    23:00 +32°C° 0 mm 1 mps 749 mmHg 70%
    Show more